Meath Environmental Platform

Observations

Time Sensor AQI SAQ Temp °C Hum % Pres Pa CO μg/m³ H₂S μg/m³ NO μg/m³ NO₂ μg/m³ O₃ μg/m³ SO₂ μg/m³ CO₂e PPM VOC PPM PM1 μg/m³ PM2.5 μg/m³ PM4 μg/m³ PM10 μg/m³ TPS µm
Tuesday 11 August 2026
04:05 Trim Market St 2 12.9 73 50,653 0.36 0 3.72 16.97 34.88 0 2.85 3.87 6.92
04:04 Trim Market St 2 12.8 73 50,778 0.37 0 3.79 15.51 34.96 0 2.85 5.32 8.75
04:03 Trim Patrick St 1 11.3 80 38,460 0.37 2.19 4.21 22.72 9.97 0 4.57 8.71 9.58
04:03 Trim Market St 2 12.9 73 50,883 0.34 0 3.77 15.92 34.86 0 2.14 2.91 5.09
04:02 Trim Market St 2 12.9 73 50,980 0.36 0 3.77 16.69 37.29 0 2.85 5.32 8.14
04:01 Trim Market St 2 12.9 73 51,076 0.35 0 3.77 17.25 33.15 0 2.14 4.36 6.92
04:01 Trim Patrick St 1 11.3 80 38,460 0.36 3.63 4.12 29.72 6.12 0 5.43 9.41 10.35
04:00 Trim Market St 2 12.9 73 51,198 0.35 0 3.77 16.42 38.42 0 2.14 3.88 7.53
04:00 Trim Patrick St 1 11.4 80 38,460 0.37 3.4 4.08 31.38 5.31 0 4.57 9.41 10.35
03:59 Trim Market St 2 12.9 73 51,317 0.34 0 3.77 15.38 32.32 0 2.85 4.85 8.14
03:59 Trim Patrick St 1 11.4 80 38,460 0.37 3.35 4 30.52 5.63 0 4.57 8.01 8.82
03:58 Trim Market St 2 12.9 73 51,451 0.36 0 3.77 15.63 41.1 0 2.85 5.81 8.75
03:58 Trim Patrick St 1 11.4 80 38,460 0.36 3.68 3.97 30.96 5.15 0 5.43 9.41 10.35
03:57 Trim Market St 2 12.9 73 51,597 0.36 0 3.7 25.04 29.27 0 2.85 5.81 9.36
03:57 Trim Patrick St 1 11.4 80 38,460 0.35 3.84 3.99 29.63 6.88 0 3.71 7.32 8.05
03:56 Trim Market St 2 13 73 51,760 0.35 0 3.3 17.43 34.98 0 2.85 6.78 9.97
03:56 Trim Patrick St 1 11.4 80 38,460 0.36 3.43 4.09 30.51 5.77 0 5.43 8.72 9.59
03:55 Trim Market St 2 12.9 73 51,877 0.35 0 3.48 12.6 40.66 0 2.85 4.38 7.53
03:55 Trim Patrick St 1 11.4 80 38,460 0.36 3.84 4.07 28.76 6.87 0 4.57 8.73 9.6
03:54 Trim Patrick St 1 11.4 80 38,460 0.36 3.53 4.05 28.77 7.34 0 5.43 9.43 10.37